Flag for Iceland Weather past 2 weeks in Reykjavik, Iceland

Now
30 °F

Scattered showers. Scattered clouds.


Feels Like: 15 °F
Forecast: N/A
Wind: 30 mph from Southwest

Location: Reykjavik Airport

Current Time: Mar 27, 2015 at 4:36:06 PM

Latest Report: Mar 27, 2015 at 4:00 PM


Visibility: N/A

Pressure: 29.12 "Hg

Humidity: 93%

Dew point: 28 °F

Location of ReykjavikLocation

Historic Weather in Reykjavik — Graph

°F

Reykjavik temperature yesterday

Maximum temperature yesterday: 36 °F (at 3:00 PM)
Minimum temperature yesterday: 30 °F (at 6:00 AM)
Average temperature yesterday: 32 °F

Past Weeks' High & Low Weather Summary

 TemperatureHumidityPressure
High46 °F (Mar 14, 7:00 AM)100% (Mar 26, 9:00 PM)30.33 "Hg (Mar 26, 9:00 PM)
Low25 °F (Mar 24, 7:00 AM)48% (Mar 24, 12:00 PM)28.80 "Hg (Mar 12, 6:00 PM)
Average36 °F79%29.70 "Hg
* Reported Mar 12 3:00 PM — Mar 27 3:00 PM, Reykjavik, Weather by CustomWeather, © 2015

Note: Actual official high and low records may vary slightly from our data, if they occured in-between our weather recording intervals... More about our weather records

Advertising

Reykjavik weather history for previous 24 hours

 ConditionsComfort  
Time TempWeatherWind HumidityBarometerVisibility
3:00 PM
Fri, Mar 27
30 °FSnow flurries. Broken clouds.23 mph93%29.12 "HgN/A
2:00 PM34 °FSnow flurries. Broken clouds.20 mph70%29.12 "HgN/A
1:00 PM34 °FScattered showers. Scattered clouds.17 mph75%29.15 "HgN/A
12:00 PM30 °FSnow flurries. Broken clouds.17 mph86%29.15 "HgN/A
11:00 AM30 °FSnow showers. Overcast.20 mph93%29.18 "Hg2 mi
10:00 AM30 °FScattered showers. Scattered clouds.8 mph93%29.18 "HgN/A
9:00 AM30 °FSnow showers. Broken clouds.10 mph86%29.18 "HgN/A
8:00 AM28 °FScattered showers. Scattered clouds.9 mph93%29.18 "HgN/A
7:00 AM30 °FSnow. Passing clouds.14 mph93%29.21 "HgN/A
6:00 AM28 °FScattered showers. Passing clouds.8 mph86%29.18 "HgN/A
5:00 AM30 °FPassing clouds.7 mph93%29.21 "HgN/A
4:00 AM32 °FScattered showers. Passing clouds.10 mph87%29.21 "HgN/A
3:00 AM30 °FScattered showers. Passing clouds.9 mph93%29.21 "HgN/A
2:00 AM30 °FSnow flurries. Passing clouds.12 mph93%29.24 "Hg2 mi
1:00 AM32 °FPassing clouds.9 mph93%29.24 "HgN/A
12:00 AM32 °FPartly cloudy.12 mph93%29.24 "HgN/A
11:00 PM
Thu, Mar 26
32 °FSnow flurries. Passing clouds.13 mph93%29.27 "HgN/A
10:00 PM32 °FPassing clouds.8 mph93%29.30 "HgN/A
9:00 PM30 °FSnow showers. Partly cloudy.12 mph100%29.30 "Hg1 mi
8:00 PM34 °FSnow. Overcast.17 mph81%29.33 "HgN/A
7:00 PM34 °FPartly sunny.12 mph81%29.33 "HgN/A
6:00 PM32 °FSnow flurries. Broken clouds.6 mph93%29.33 "HgN/A
5:00 PM32 °FSnow flurries. Partly sunny.10 mph93%29.36 "HgN/A
4:00 PM34 °FScattered showers. Partly sunny.13 mph81%29.33 "HgN/A
Weather by CustomWeather, © 2015

See weather overviewHow to use our weather pages